Tracking 19854 objects as of 23-Sep-2019
HD Live streaming from Space Station
objects crossing your sky now

SL-14 DEB

Track SL-14 DEB now!
10-day predictions


NORAD ID: 19295
Int'l Code: 1978-100AE
Perigee: 1,263.6 km
Apogee: 2,060.6 km
Inclination: 82.0 °
Period: 119.4 minutes
Semi major axis: 8033 km
RCS: 0.0582 m2 (small)
Launch date: October 26, 1978
Source: Commonwealth of Independent States (former USSR) (CIS)
Launch site: PLESETSK MISSILE AND SPACE COMPLEX (PKMTR)

Note: This is SATELLITE DEBRIS
aabbcc
Your satellite tracking list
Your tracking list is empty




NASA's NSSDC Master Catalog

Two Line Element Set (TLE):
1 19295U 78100AE  19262.97464715  .00000260  00000-0  20058-2 0  9990
2 19295  81.9915  97.1668 0496027 180.3228 335.4685 12.05807790376267
Source of the keplerian elements: AFSPC